This demonstration page uses our WeatherBlox Daily Observations layout. Learn more.

Left ArrowRight Arrow

Hourly Observations for July 6, 2018

Temp ( °F °C ) Dew Point ( °F °C ) Humidity (%) Winds ( mph kmh ) Pressure ( in mb ) Visibility ( mi km ) Precip ( " mm )
12:53 am 00:53 Clear 73 22.8 49 9.4 43 43 NNE 3 6 30.09 1019 10 16 0.00 0.00
1:53 am 01:53 Clear 71 21.7 48 8.9 44 44 N 3 6 30.09 1019 10 16 0.00 0.00
2:53 am 02:53 Clear 68 20 48 8.9 49 49 Calm 30.10 1019 10 16 0.00 0.00
3:53 am 03:53 Clear 67 19.4 49 9.4 53 53 N 3 6 30.10 1019 10 16 0.00 0.00
4:53 am 04:53 Clear 67 19.4 51 10.6 57 57 N 5 7 30.09 1019 10 16 0.00 0.00
5:53 am 05:53 Sunny 68 20 53 11.7 59 59 N 5 7 30.09 1019 10 16 0.00 0.00
6:53 am 06:53 Sunny 69 20.6 52 11.1 55 55 NW 3 6 30.10 1019 10 16 0.00 0.00
7:53 am 07:53 Sunny 72 22.2 52 11.1 50 50 N 5 7 30.10 1019 10 16 0.00 0.00
8:53 am 08:53 Sunny 76 24.4 54 12.2 47 47 Calm 30.10 1019 10 16 0.00 0.00
9:53 am 09:53 Sunny 80 26.7 53 11.7 39 39 Calm 30.09 1019 10 16 0.00 0.00
10:53 am 10:53 Sunny 83 28.3 51 10.6 33 33 Calm 30.10 1019 10 16 0.00 0.00
11:53 am 11:53 Sunny 86 30 47 8.3 26 26 Calm 30.10 1019 10 16 0.00 0.00
12:53 pm 12:53 Sunny 85 29.4 48 8.9 28 28 NW 3 6 30.09 1019 10 16 0.00 0.00
1:53 pm 13:53 Sunny 85 29.4 50 10 30 30 SW 5 7 30.08 1019 10 16 0.00 0.00
2:53 pm 14:53 Sunny 88 31.1 43 6.1 21 21 Calm 30.06 1018 10 16 0.00 0.00
3:53 pm 15:53 Sunny 89 31.7 42 5.6 19 19 VRB 3 6 30.03 1017 10 16 0.00 0.00
4:53 pm 16:53 Sunny 90 32.2 42 5.6 19 19 SSW 5 7 30.01 1016 10 16 0.00 0.00
5:53 pm 17:53 Sunny 90 32.2 38 3.3 16 16 S 5 7 30.00 1016 10 16 0.00 0.00
6:53 pm 18:53 Sunny 92 33.3 41 5 17 17 SSE 9 15 29.99 1016 10 16 0.00 0.00
7:53 pm 19:53 Sunny 89 31.7 38 3.3 16 16 SSE 8 13 29.98 1015 10 16 0.00 0.00
8:53 pm 20:53 Clear 83 28.3 40 4.4 22 22 S 6 9 29.98 1015 10 16 0.00 0.00
9:53 pm 21:53 Clear 78 25.6 40 4.4 26 26 Calm 29.99 1016 10 16 0.00 0.00
10:53 pm 22:53 Clear 72 22.2 40 4.4 31 31 N 3 6 30.00 1016 10 16 0.00 0.00
11:53 pm 23:53 Clear 70 21.1 43 6.1 38 38 NNW 5 7 30.00 1016 10 16 0.00 0.00

Powered by AerisWeather